Location: Dittelbrunn
(50.0738°N, 10.2196°E)
Time: 02:21:01
(UTC+00:00)

Cosmos 1937 Rocket - Pass Details

Date: 18 September 2020
Orbit: 747 x 779 km, 74.0° (Epoch: 30 October)

Event Time Altitude Azimuth Distance (km) Brightness Sun altitude
Rises 18:54:33 0° 212° (SSW) 3,234 6.9 -14.8°
Reaches altitude 10° 18:56:57 10° 216° (SW) 2,307 6.2 -15.2°
Maximum altitude 19:02:08 63° 297° (WNW) 856 4.0 -15.9°
Drops below altitude 10° 19:07:19 10° 19° (NNE) 2,300 6.0 -16.7°
Sets 19:09:43 0° 23° (NNE) 3,225 6.8 -17.1°
